RH
21 21 25 28 29 31 32 30 30 36 40 33 35 37 34 32 27 26 24 18 14 13 14 11 8 7 6 6 5 4 4 4 4 4 4 4 4 5 6 6 7 7 7
27 26 26 23 26 37 37 44 39 36 35 33 34 40 37 35 35 33 31 25 20 14 12 14 12 9 7 6 6 5 5 5 4 4 4 4 4 4 5 6 7 7 8
65 64 49 41 39 30 30 38 42 41 38 32 34 36 40 39 40 30 30 30 26 20 15 12 12 14 11 7 7 6 6 5 5 5 5 5 5 5 5 6 7 7 8
79 80 75 72 58 46 40 35 36 38 37 38 40 37 39 40 35 32 33 29 28 24 21 15 11 12 14 13 9 7 7 7 6 5 5 5 5 5 6 6 8 8 8
82 79 92 91 89 82 67 58 49 39 47 45 37 38 41 32 30 34 30 27 25 25 24 23 16 10 11 13 18 11 8 8 7 8 7 6 6 6 6 6 7 8 8
87 88 82 86 95 92 94 90 77 54 39 40 42 40 40 40 36 28 25 25 24 25 23 24 20 14 10 11 13 20 14 9 8 9 7 8 7 6 6 6 8 8 9
74 70 74 83 93 98 98 98 98 98 83 59 42 42 43 42 45 41 30 25 23 23 21 23 23 17 12 10 12 14 20 20 14 8 9 9 7 8 8 8 7 7 9
67 59 59 61 80 82 96 93 93 96 100 100 96 66 46 41 42 42 36 30 23 22 22 22 23 21 13 10 10 13 14 22 23 20 11 8 10 9 7 9 10 10 9
69 65 57 49 46 70 88 96 93 99 100 100 100 100 82 48 46 45 38 34 26 22 21 21 22 20 13 9 9 11 14 16 24 26 25 17 9 9 10 10 8 8 11
57 64 61 47 35 39 51 72 93 100 100 100 100 100 100 78 46 47 46 54 41 24 19 19 21 19 11 8 8 9 16 18 26 29 28 29 28 20 12 10 10 10 8
56 57 59 47 40 41 37 38 42 66 98 100 100 100 100 100 60 46 47 54 48 30 20 16 17 18 10 7 7 8 12 18 27 37 36 36 34 31 29 26 20 14 10
65 47 52 58 50 49 42 45 44 45 46 79 99 100 100 100 90 47 50 57 50 34 24 19 16 16 9 6 6 7 11 20 26 37 46 44 38 34 32 30 27 25 22
80 69 54 65 68 56 52 54 57 63 65 49 57 90 98 100 100 61 47 57 52 44 33 24 17 14 12 6 6 7 10 18 21 34 44 44 37 37 38 35 31 27 25
92 80 76 70 62 59 62 69 64 76 79 87 47 61 98 100 100 83 50 46 53 51 44 32 19 15 13 6 6 7 10 18 19 32 41 42 42 42 39 39 35 30 23
94 85 77 78 71 65 55 59 73 72 80 94 73 41 73 96 100 100 72 48 49 57 49 32 23 15 16 8 8 9 17 16 28 45 44 43 42 45 46 44 44 44 35
93 98 88 93 85 77 61 64 67 59 51 61 79 61 39 63 99 100 88 46 42 55 47 38 31 18 14 14 14 22 20 20 23 27 31 37 37 43 45 45 49 49 42
85 97 96 92 100 94 74 66 66 77 57 45 64 70 74 38 74 100 89 48 42 49 49 44 34 24 17 16 18 20 16 25 31 31 29 31 34 42 46 49 53 65 70
94 97 94 94 100 100 87 76 72 71 77 50 43 54 65 49 49 89 96 59 47 44 47 48 38 40 24 16 19 24 24 23 22 35 36 41 40 42 40 47 56 63 73
94 100 96 92 94 100 100 91 87 84 83 71 54 55 45 64 34 70 92 62 47 39 44 52 45 38 34 26 19 21 24 25 26 22 27 40 47 50 48 43 48 58 61
94 100 98 95 94 92 100 100 93 84 96 90 83 62 48 47 61 36 79 67 51 36 43 45 45 45 38 44 28 18 19 23 25 26 23 22 39 48 62 54 46 51 55
88 100 100 100 86 86 90 100 100 97 94 98 99 76 67 49 53 50 48 74 62 44 37 40 47 50 43 41 42 35 23 18 24 26 25 24 21 28 46 61 65 57 52
99 100 100 100 84 77 83 93 100 100 100 93 100 93 77 70 50 60 46 60 62 47 39 42 38 45 32 36 39 43 46 28 20 24 26 25 21 20 25 47 61 74 69
100 100 100 100 93 72 76 75 100 100 100 94 100 100 85 84 61 61 54 47 54 45 44 45 36 29 35 30 32 38 45 50 32 22 25 25 23 18 18 23 48 60 70
100 100 100 100 95 87 79 70 84 100 100 100 100 100 100 90 84 74 60 42 48 52 47 39 40 36 35 34 33 33 41 39 48 37 21 25 24 22 16 15 22 47 60
100 100 100 100 100 93 87 78 79 93 100 100 100 100 100 100 84 88 71 50 36 42 47 42 43 38 43 36 36 36 37 42 43 49 37 23 25 24 21 14 14 21 49
100 100 100 100 100 100 100 91 92 89 98 100 100 100 100 100 100 99 83 70 53 55 60 52 45 34 37 41 39 36 39 41 41 48 51 36 27 26 23 19 12 13 22
Wind_Speed
70 71 72 72 73 73 77 80 83 86 89 91 92 95 90 86 79 77 76 69 59 53 47 39 27 17 11 8 13 20 28 37 45 55 66 78 91 106 117 118 118 121 129
69 70 72 71 71 73 74 76 79 82 85 88 90 93 94 96 94 87 80 75 71 61 52 46 39 27 16 10 7 11 18 26 35 44 54 65 78 91 105 114 116 115 117
66 69 70 70 70 72 72 73 75 78 81 83 87 90 93 96 96 93 88 82 76 69 62 52 44 38 28 17 10 6 10 18 26 33 43 54 66 78 90 103 111 115 115
62 65 66 69 70 70 71 72 74 75 77 81 84 87 90 93 93 94 94 91 86 77 72 62 52 41 36 28 18 8 5 9 17 25 34 44 55 66 78 90 101 109 112
62 64 66 67 67 70 70 70 72 72 74 78 80 82 84 87 91 93 93 95 94 85 77 72 62 50 38 32 27 17 6 3 9 16 25 34 44 55 65 76 87 98 105
58 61 64 68 70 68 70 70 72 70 71 74 77 81 83 85 88 88 91 94 94 91 83 77 67 56 44 32 27 23 15 7 1 8 16 24 33 42 53 63 72 81 92
56 60 63 65 67 70 71 70 70 70 72 72 74 76 79 83 85 87 90 90 95 94 92 83 75 65 50 36 26 21 18 14 8 2 8 15 23 31 38 47 58 67 74
55 56 59 63 65 67 69 72 72 71 71 71 76 76 76 80 85 88 88 89 93 93 96 93 82 72 59 42 27 18 16 14 12 10 3 6 13 20 29 38 45 51 59
50 53 56 60 64 65 66 68 71 72 71 72 73 76 76 76 79 84 89 91 92 94 96 97 91 78 63 47 31 17 13 13 12 13 11 6 3 9 16 25 34 43 50
48 51 54 56 61 65 68 70 70 68 70 70 72 73 76 75 77 81 86 90 94 98 99 98 97 85 68 49 33 19 9 9 13 14 15 15 10 5 7 12 19 27 37
46 47 51 52 57 62 66 70 73 72 67 67 68 70 73 76 73 75 83 89 94 96 96 103 102 92 75 53 36 21 8 4 9 13 17 18 17 13 8 8 14 20 25
46 47 48 49 54 57 63 67 70 75 76 69 66 66 69 72 71 71 76 83 89 94 96 105 105 99 80 58 39 24 10 3 8 13 15 18 18 19 18 16 14 14 17
45 48 50 48 51 55 59 64 68 72 76 80 73 67 66 68 69 68 73 78 85 93 94 100 107 104 84 61 42 27 15 10 13 15 15 17 21 24 25 21 17 16 17
42 46 50 52 52 53 57 61 64 69 73 76 78 71 65 64 66 67 70 76 83 89 92 98 105 102 90 65 45 32 22 20 21 21 22 24 27 30 31 30 26 22 19
37 42 47 49 52 55 56 59 62 68 72 73 75 75 68 64 63 65 66 71 78 85 92 95 97 104 95 72 55 41 32 29 29 26 23 23 28 33 33 33 29 26 22
36 37 41 47 51 54 55 59 60 63 69 70 74 75 77 70 62 61 64 65 73 80 86 91 94 93 98 92 65 49 42 38 32 29 28 27 30 35 37 38 35 32 26
37 37 39 44 49 52 54 54 55 61 68 70 72 76 77 77 66 59 60 61 66 73 80 86 89 88 90 91 79 64 43 31 32 33 34 32 31 33 37 39 37 34 31
35 39 41 44 46 50 53 54 56 57 59 65 70 73 74 75 70 59 57 59 63 66 73 78 85 86 84 87 85 77 67 56 38 27 27 30 33 32 32 36 36 35 32
32 38 42 44 46 48 52 54 57 58 60 60 66 69 73 74 70 62 57 56 59 63 69 72 80 82 83 80 83 80 74 67 59 48 30 23 25 29 31 31 32 34 33
33 35 40 44 45 46 48 53 58 60 60 60 63 66 70 72 70 66 57 56 57 61 65 68 71 76 80 82 79 78 77 78 71 60 51 36 22 21 25 28 28 30 31
34 37 38 42 45 47 47 53 57 60 60 59 61 64 67 70 71 68 63 56 54 58 60 63 67 70 75 77 82 81 77 78 75 70 61 51 39 23 17 20 23 27 29
36 38 39 42 44 46 47 49 57 61 61 60 58 59 62 67 67 66 64 58 53 54 57 60 63 66 72 73 77 81 83 79 78 75 70 61 49 37 23 15 17 20 23
36 39 39 41 44 46 47 46 52 59 63 62 58 57 60 62 66 63 63 59 53 51 54 57 59 63 67 73 74 77 78 84 79 80 77 69 61 48 35 21 14 14 15
36 39 40 42 45 46 47 45 46 57 62 62 60 57 56 58 61 63 60 55 52 51 52 54 55 59 66 69 73 74 75 76 81 78 76 76 71 61 47 33 18 13 13
38 39 41 43 46 48 48 45 46 49 59 61 61 54 55 58 58 58 56 54 52 48 49 53 54 58 61 65 69 73 74 74 74 80 80 77 78 71 59 44 31 16 13
44 42 42 43 46 48 50 49 48 49 54 60 60 58 54 55 55 54 53 55 57 52 52 55 52 54 56 60 67 71 74 74 73 78 82 82 81 77 68 55 41 28 14
Wind_Direction
32 32 33 35 35 37 37 37 37 37 36 36 35 35 34 32 29 29 27 24 22 21 22 26 25 15 356 313 265 244 234 230 228 226 225 224 224 223 225 227 228 229 231
28 26 28 29 29 32 33 33 34 33 33 34 33 32 32 33 33 31 29 26 24 20 20 20 22 25 19 3 312 260 240 231 228 226 224 224 224 223 224 225 226 229 231
25 27 27 27 26 26 28 29 30 31 31 31 31 30 30 30 30 30 29 27 24 21 19 17 17 20 21 25 9 309 252 237 230 227 226 224 223 222 223 224 225 227 229
20 21 23 24 25 25 25 26 26 27 28 27 30 30 29 29 29 28 29 27 25 21 19 15 14 12 16 18 21 11 308 252 237 230 225 225 224 223 223 223 224 227 229
15 16 16 18 21 22 25 25 23 24 24 25 25 26 27 27 26 23 24 24 24 22 21 17 12 10 6 9 13 15 13 306 251 237 231 228 226 224 224 225 226 227 229
10 10 11 10 11 17 19 21 25 22 21 21 21 22 22 23 25 24 22 19 21 22 20 18 14 9 7 2 4 9 11 16 289 247 236 233 230 229 226 225 226 228 230
9 9 8 8 8 8 10 14 16 20 20 18 18 19 19 19 19 19 21 20 18 19 17 16 14 11 7 2 356 358 7 15 14 304 236 236 234 233 230 232 231 230 230
9 10 9 8 6 7 6 7 9 12 15 16 16 17 16 17 17 16 19 19 17 14 15 14 14 12 7 2 358 348 355 9 25 21 338 230 231 233 233 233 232 233 234
6 8 10 11 10 6 6 5 5 6 9 10 13 13 15 14 15 14 16 16 20 14 15 14 13 10 8 3 359 350 340 359 19 32 25 10 254 228 231 235 237 237 237
6 7 9 11 14 13 10 8 7 4 3 6 7 10 12 13 12 12 12 11 14 16 14 12 12 10 7 6 1 358 337 349 12 19 29 30 21 338 269 245 241 241 242
3 7 8 8 11 10 13 14 13 12 5 2 4 7 7 10 11 10 11 10 12 16 14 12 13 10 7 7 6 5 359 346 17 27 26 23 20 14 355 311 281 268 259
3 3 5 6 8 9 8 9 11 12 13 9 6 6 6 7 9 9 8 10 9 16 14 13 11 10 9 9 12 14 27 85 40 31 27 22 10 6 356 342 325 301 278
3 2 360 2 1 2 5 5 5 7 10 11 10 8 7 7 8 7 6 9 8 12 15 13 11 9 11 11 16 25 45 94 64 40 29 16 11 9 3 350 333 319 308
5 3 0 359 358 357 0 2 2 4 4 5 8 10 8 8 7 8 8 8 9 10 11 13 14 12 14 16 21 30 51 82 57 43 34 26 20 18 13 7 359 347 335
2 3 360 358 358 359 0 1 3 3 3 4 6 8 7 8 9 7 9 7 9 9 12 15 17 15 18 23 30 39 59 61 49 40 32 27 28 23 19 14 9 1 351
356 359 357 1 359 358 1 3 6 8 8 7 4 6 8 6 7 8 6 9 11 11 10 14 17 20 19 21 35 43 42 32 30 27 24 23 25 24 20 17 16 12 7
354 354 357 0 3 2 358 359 3 5 5 7 5 4 5 5 7 7 6 8 7 10 12 12 15 19 21 18 23 28 29 29 26 18 14 15 17 18 17 16 15 14 15
348 350 352 357 1 3 360 357 359 360 1 3 6 5 3 6 6 7 6 6 7 9 12 12 14 19 22 23 22 22 22 22 20 14 16 7 7 9 11 15 14 11 11
343 345 347 350 354 358 1 359 356 357 359 358 1 4 4 4 5 6 4 5 4 7 10 12 12 14 17 24 23 22 21 21 19 17 7 4 3 0 0 5 12 11 10
334 341 341 343 348 354 359 360 358 355 356 356 357 359 4 5 4 5 3 3 5 4 7 9 10 11 16 20 23 23 22 23 19 17 12 7 352 353 353 354 1 8 9
323 330 335 338 343 347 352 357 357 355 354 355 354 356 359 3 3 2 1 0 3 3 5 9 8 10 10 15 17 22 21 18 21 18 15 10 3 350 341 346 351 357 4
314 321 328 332 336 340 346 351 355 356 353 353 352 352 355 357 1 2 0 358 0 2 2 6 9 8 9 8 13 18 20 21 18 19 18 13 9 359 345 329 337 345 351
307 311 319 326 331 334 339 344 350 352 352 349 350 348 351 354 356 359 360 357 357 1 1 2 6 9 11 10 9 13 16 16 20 17 18 17 12 7 358 340 317 322 336
300 304 311 318 323 328 333 339 343 348 350 349 349 348 348 351 354 356 359 358 355 360 0 1 2 4 7 10 9 12 12 15 14 19 19 18 16 12 6 356 334 301 309
296 299 305 311 317 323 327 332 337 343 345 346 344 346 345 347 351 355 355 358 356 358 356 357 358 0 5 7 10 11 12 13 16 15 17 17 17 14 12 6 356 330 294
291 295 299 305 310 315 320 325 332 337 339 342 340 342 343 343 347 350 351 352 353 351 349 351 355 358 3 6 8 11 10 12 14 17 16 16 17 17 15 13 8 358 329